Tracking 20369 objects as of 17-Feb-2020
HD Live streaming from Space Station
objects crossing your sky now

COSMOS 767

Track COSMOS 767 now!
10-day predictions
COSMOS 767 is classified as:


NORAD ID: 8291
Int'l Code: 1975-086G
Perigee: 1,462.3 km
Apogee: 1,493.7 km
Inclination: 74.0 °
Period: 115.3 minutes
Semi major axis: 7848 km
RCS: 0.6985 m2 (medium)
Launch date: September 17, 1975
Source: Commonwealth of Independent States (former USSR) (CIS)
Launch site: PLESETSK MISSILE AND SPACE COMPLEX (PKMTR)
aabbcc
Your satellite tracking list
Your tracking list is empty




NASA's NSSDC Master Catalog

Two Line Element Set (TLE):
1  8291U 75086G   20047.86849821 -.00000003 +00000-0 +90041-4 0  9997
2  8291 074.0088 190.9839 0020022 346.0787 183.1112 12.48485246024376
Source of the keplerian elements: AFSPC